Simultaneous Nadir Overpasses (SNOs) Predictions

Prediction of SNOs between AQUA and GOES-15 Satellite Orbit:

Table of predicted SNOs for the next 14.0 days since TLE Epoch: 10/26/2025
Index Date Time (AQUA) AQUA Lat,Lon GOES-15 Lat,Lon Distance(km) Time Diff (sec)
1 10/26/2025 23:00:31 0.37, 59.46 -0.04, 61.50 232.11 80
2 10/28/2025 22:39:34 -0.73, 64.59 -0.09, 61.54 346.90 80
3 10/29/2025 10:58:40 -0.32, 59.98 0.02, 61.60 184.15 80
4 10/31/2025 10:37:44 0.84, 65.11 0.07, 61.63 395.88 80
5 10/31/2025 22:56:41 0.22, 60.54 0.00, 61.58 118.63 80
6 11/02/2025 22:35:43 -0.94, 65.67 -0.04, 61.63 460.59 80
7 11/03/2025 10:54:48 -0.19, 61.08 -0.03, 61.70 71.32 80
8 11/05/2025 22:52:47 0.07, 61.64 0.06, 61.69 5.32 80
9 11/08/2025 10:50:52 -0.00, 62.18 -0.09, 61.83 39.99 80
10 11/08/2025 23:09:49 1.08, 57.62 0.16, 61.77 472.45 80
